When you browse on this site, cookies collect data to enhance your experience and personalize the content and advertising you see.
Visit our Privacy Policy to learn more. By continuing to use the site, you agree to this use of cookies and data.
  • In Austria
  • List of Countries
  • For 7 days
  • Water Temperature
  • Satellite Maps
  • Weather Map
  • News
  • Weather Widgets
  • user-avatar
    Login

    Hourly Weather Kitzbuhel

    Today, 26 May, Sunday

    Time Temperature Precipitation Wind Pressure Humidity
    00:00 +10°C° 0.5 mm 1 mps 676 mmHg 95%
    01:00 +10°C° 0.5 mm 1 mps 676 mmHg 95%
    02:00 +9°C° 0 mm 1 mps 676 mmHg 94%
    03:00 +9°C° 0 mm 1 mps 676 mmHg 94%
    04:00 +9°C° 0 mm 1 mps 676 mmHg 94%
    05:00 +9°C° 0 mm 0 mps 676 mmHg 92%
    06:00 +10°C° 0 mm 0 mps 676 mmHg 90%
    07:00 +12°C° 0 mm 0 mps 677 mmHg 88%
    08:00 +13°C° 0.1 mm 0 mps 677 mmHg 80%
    09:00 +16°C° 0.1 mm 1 mps 677 mmHg 73%
    10:00 +18°C° 0.1 mm 1 mps 677 mmHg 65%
    11:00 +19°C° 0.4 mm 1 mps 677 mmHg 67%
    12:00 +19°C° 0.4 mm 1 mps 677 mmHg 69%
    13:00 +19°C° 0.4 mm 1 mps 677 mmHg 71%
    14:00 +19°C° 0.7 mm 1 mps 676 mmHg 76%
    15:00 +18°C° 0.7 mm 1 mps 676 mmHg 81%
    16:00 +18°C° 0.7 mm 1 mps 676 mmHg 86%
    17:00 +16°C° 0.8 mm 1 mps 676 mmHg 89%
    18:00 +15°C° 0.8 mm 1 mps 676 mmHg 92%
    19:00 +13°C° 0.8 mm 0 mps 675 mmHg 94%
    20:00 +12°C° 0.4 mm 0 mps 675 mmHg 95%
    21:00 +12°C° 0.4 mm 0 mps 675 mmHg 95%
    22:00 +11°C° 0.4 mm 0 mps 675 mmHg 95%
    23:00 +11°C° 0.1 mm 0 mps 675 mmHg 95%

    Tomorrow, 27 May, Monday

    Time Temperature Precipitation Wind Pressure Humidity
    00:00 +10°C° 0.1 mm 0 mps 675 mmHg 95%
    01:00 +10°C° 0.1 mm 0 mps 675 mmHg 95%
    02:00 +10°C° 0.1 mm 0 mps 674 mmHg 96%
    03:00 +10°C° 0.1 mm 0 mps 674 mmHg 96%
    04:00 +11°C° 0.1 mm 0 mps 674 mmHg 96%
    05:00 +11°C° 0.3 mm 0 mps 674 mmHg 96%
    06:00 +11°C° 0.3 mm 0 mps 674 mmHg 97%
    07:00 +11°C° 0.3 mm 0 mps 674 mmHg 97%
    08:00 +13°C° 0.4 mm 1 mps 674 mmHg 96%
    09:00 +13°C° 0.4 mm 1 mps 674 mmHg 95%
    10:00 +14°C° 0.4 mm 1 mps 674 mmHg 95%
    11:00 +14°C° 0.4 mm 1 mps 674 mmHg 94%
    12:00 +14°C° 0.4 mm 1 mps 673 mmHg 94%
    13:00 +14°C° 0.4 mm 1 mps 673 mmHg 93%
    14:00 +14°C° 0.4 mm 1 mps 673 mmHg 93%
    15:00 +15°C° 0.4 mm 1 mps 673 mmHg 92%
    16:00 +15°C° 0.4 mm 1 mps 672 mmHg 91%
    17:00 +14°C° 0.5 mm 1 mps 672 mmHg 93%
    18:00 +13°C° 0.5 mm 0 mps 672 mmHg 95%
    19:00 +13°C° 0.5 mm 0 mps 672 mmHg 97%
    20:00 +12°C° 1.7 mm 0 mps 671 mmHg 98%
    21:00 +12°C° 1.7 mm 0 mps 671 mmHg 98%
    22:00 +12°C° 1.7 mm 1 mps 671 mmHg 98%
    23:00 +12°C° 3.7 mm 1 mps 671 mmHg 98%

    Day after tomorrow, 28 May, Tuesday

    Time Temperature Precipitation Wind Pressure Humidity
    00:00 +12°C° 3.7 mm 1 mps 671 mmHg 98%
    01:00 +12°C° 3.7 mm 1 mps 670 mmHg 98%
    02:00 +11°C° 3.1 mm 1 mps 670 mmHg 98%
    03:00 +11°C° 3.1 mm 1 mps 670 mmHg 98%
    04:00 +11°C° 3.1 mm 1 mps 669 mmHg 98%
    05:00 +11°C° 1.6 mm 1 mps 669 mmHg 98%
    06:00 +11°C° 1.6 mm 1 mps 669 mmHg 98%
    07:00 +11°C° 1.6 mm 1 mps 669 mmHg 97%
    08:00 +11°C° 2.2 mm 1 mps 669 mmHg 98%
    09:00 +10°C° 2.2 mm 1 mps 669 mmHg 98%
    10:00 +10°C° 2.2 mm 1 mps 669 mmHg 98%
    11:00 +10°C° 1.3 mm 1 mps 670 mmHg 98%
    12:00 +10°C° 1.3 mm 1 mps 670 mmHg 98%
    13:00 +10°C° 1.3 mm 1 mps 670 mmHg 98%
    14:00 +11°C° 0.7 mm 1 mps 670 mmHg 97%
    15:00 +11°C° 0.7 mm 1 mps 670 mmHg 96%
    16:00 +11°C° 0.7 mm 1 mps 670 mmHg 95%
    17:00 +10°C° 0.8 mm 1 mps 670 mmHg 96%
    18:00 +10°C° 0.8 mm 1 mps 670 mmHg 97%
    19:00 +9°C° 0.8 mm 1 mps 670 mmHg 98%
    20:00 +9°C° 1.1 mm 1 mps 671 mmHg 98%
    21:00 +9°C° 1.1 mm 1 mps 671 mmHg 98%
    22:00 +8°C° 1.1 mm 1 mps 671 mmHg 98%
    23:00 +8°C° 2.1 mm 1 mps 671 mmHg 99%

    29 May, Wednesday

    Time Temperature Precipitation Wind Pressure Humidity
    00:00 +8°C° 2.1 mm 1 mps 672 mmHg 99%
    01:00 +7°C° 2.1 mm 1 mps 672 mmHg 99%
    02:00 +7°C° 1.7 mm 1 mps 672 mmHg 99%
    03:00 +7°C° 1.7 mm 1 mps 672 mmHg 99%
    04:00 +7°C° 1.7 mm 1 mps 672 mmHg 99%
    05:00 +7°C° 1.5 mm 1 mps 672 mmHg 98%
    06:00 +6°C° 1.5 mm 1 mps 672 mmHg 98%
    07:00 +6°C° 1.5 mm 1 mps 673 mmHg 98%
    08:00 +7°C° 1.8 mm 1 mps 673 mmHg 98%
    09:00 +7°C° 1.8 mm 1 mps 673 mmHg 98%
    10:00 +7°C° 1.8 mm 1 mps 674 mmHg 98%
    11:00 +7°C° 1.1 mm 1 mps 674 mmHg 97%
    12:00 +7°C° 1.1 mm 1 mps 674 mmHg 97%
    13:00 +7°C° 1.1 mm 1 mps 674 mmHg 96%
    14:00 +8°C° 0.4 mm 1 mps 675 mmHg 94%
    15:00 +8°C° 0.4 mm 1 mps 675 mmHg 92%
    16:00 +9°C° 0.4 mm 1 mps 675 mmHg 89%
    17:00 +8°C° 0.1 mm 1 mps 675 mmHg 90%
    18:00 +8°C° 0.1 mm 1 mps 676 mmHg 91%
    19:00 +8°C° 0.1 mm 1 mps 676 mmHg 92%
    20:00 +7°C° 0 mm 1 mps 677 mmHg 92%
    21:00 +6°C° 0 mm 1 mps 677 mmHg 92%
    22:00 +5°C° 0 mm 1 mps 678 mmHg 92%
    23:00 +4°C° 0 mm 1 mps 678 mmHg 91%

    30 May, Thursday

    Time Temperature Precipitation Wind Pressure Humidity
    00:00 +4°C° 0 mm 1 mps 678 mmHg 91%
    01:00 +3°C° 0 mm 1 mps 679 mmHg 90%
    02:00 +4°C° 0 mm 1 mps 679 mmHg 89%
    03:00 +4°C° 0 mm 1 mps 679 mmHg 88%
    04:00 +4°C° 0 mm 1 mps 680 mmHg 87%
    05:00 +5°C° 0 mm 1 mps 680 mmHg 84%
    06:00 +7°C° 0 mm 1 mps 681 mmHg 81%
    07:00 +9°C° 0 mm 1 mps 681 mmHg 78%
    08:00 +10°C° 0 mm 1 mps 681 mmHg 73%
    09:00 +12°C° 0 mm 1 mps 682 mmHg 68%
    10:00 +14°C° 0 mm 1 mps 682 mmHg 63%
    11:00 +15°C° 0 mm 1 mps 682 mmHg 60%
    12:00 +16°C° 0 mm 1 mps 682 mmHg 57%
    13:00 +16°C° 0 mm 1 mps 682 mmHg 55%
    14:00 +16°C° 0 mm 1 mps 682 mmHg 55%
    15:00 +16°C° 0 mm 1 mps 682 mmHg 56%
    16:00 +16°C° 0 mm 1 mps 682 mmHg 56%
    17:00 +15°C° 0 mm 1 mps 682 mmHg 63%
    18:00 +13°C° 0 mm 1 mps 681 mmHg 71%
    19:00 +11°C° 0 mm 0 mps 681 mmHg 78%
    20:00 +10°C° 0 mm 1 mps 682 mmHg 80%
    21:00 +9°C° 0 mm 1 mps 682 mmHg 83%
    22:00 +8°C° 0 mm 1 mps 682 mmHg 85%
    23:00 +7°C° 0 mm 2 mps 682 mmHg 83%

    31 May, Friday

    Time Temperature Precipitation Wind Pressure Humidity
    00:00 +7°C° 0 mm 2 mps 682 mmHg 82%
    01:00 +6°C° 0 mm 2 mps 682 mmHg 80%
    02:00 +7°C° 0.1 mm 2 mps 682 mmHg 80%
    03:00 +7°C° 0.1 mm 2 mps 682 mmHg 79%
    04:00 +7°C° 0.1 mm 2 mps 682 mmHg 78%
    05:00 +9°C° 0 mm 1 mps 683 mmHg 76%
    06:00 +11°C° 0 mm 1 mps 683 mmHg 74%
    07:00 +12°C° 0 mm 1 mps 683 mmHg 71%
    08:00 +14°C° 0.1 mm 1 mps 684 mmHg 68%
    09:00 +15°C° 0.1 mm 1 mps 684 mmHg 65%
    10:00 +16°C° 0.1 mm 1 mps 684 mmHg 62%
    11:00 +15°C° 0.7 mm 1 mps 684 mmHg 73%
    12:00 +13°C° 0.7 mm 1 mps 683 mmHg 84%
    13:00 +11°C° 0.7 mm 1 mps 683 mmHg 95%
    14:00 +12°C° 0.4 mm 1 mps 683 mmHg 94%
    15:00 +12°C° 0.4 mm 1 mps 683 mmHg 94%
    16:00 +12°C° 0.4 mm 1 mps 683 mmHg 93%
    17:00 +11°C° 0.2 mm 1 mps 684 mmHg 93%
    18:00 +11°C° 0.2 mm 1 mps 684 mmHg 93%
    19:00 +11°C° 0.2 mm 1 mps 684 mmHg 93%
    20:00 +11°C° 0.2 mm 1 mps 684 mmHg 92%
    21:00 +11°C° 0.2 mm 1 mps 684 mmHg 92%
    22:00 +10°C° 0.2 mm 1 mps 685 mmHg 92%
    23:00 +10°C° 0.2 mm 1 mps 685 mmHg 92%
    Show more